STARLINK-4347, 53076

Orbit data source: Space-Track

STARLINK-4347, 53076 is a payload satellite owned by SpaceX/Seattle (US) in SSO that was launched on Mon, 11 Jul 2022 UTC via an FALCON 9 launch vehicle from the Air Force Western Test Range (AFWTR). Payload-class satellites include a variety of spacecraft equipped with specific instruments for various scientific and technological missions. These include communications satellites like Starlink; space stations such as the ISS; scientific satellites like the Hubble; Earth observation satellites from companies like Planet Labs, Umbra, and HawkEye 360; GPS; miniature CubeSats for education and research; and military/defense satellites.

Loading next visibility...
Identifier
53076, 2022-077AK
Orbit
SSO
Country
Flag of USUS
Related business
Manufacturer
SpaceX/Seattle
Mission
Operational Commercial Communications
Bus & Motor
STARLINK, Unknown motor
Mass
297 kg wet, ~275 kg dry
Launch date (UTC)
2022-07-11 (3 years ago)
Launch vehicle
FALCON 9
Launch site
Air Force Western Test Range (AFWTR)
Object type
Payload
Rocket body
Debris
Shape & HBR
Box + 1 Pan, 10.1 m
Radar Cross Section
13.562 m², Large (>1 m²)

Expand to show TLE details & history
Last TLE update: 21 hours ago

TLE from 21 hours ago
0 STARLINK-4347
1 53076U 22077AK  25349.21485050  .00002916  00000-0  23129-3 0  9995
2 53076  97.6011 167.5109 0001415  91.8446 268.2941 15.01284221188240
Epoch: 2025-12-15T05:09Z
TLE epoch observation values (Epoch: 2025-12-15T05:09:23.083Z)
Latitude
0.00005°
Longitude
6.04809°
Altitude
566.024 km
Speed
7.578 km/s
True Right ascension
11h 10m 02s
True Declination
0° 00' 00"
Sunlit
Object was in daylight at epoch
Visualization orbit readout
Latitude
Unknown
Longitude
Unknown
Altitude
Unknown
Speed
Unknown
Apparent Right ascension
Unknown
Apparent Declination
Unknown
Sunlit
N/A
Visualization observer readout
Local Sidereal Time
00:19:43
Azimuth
Unknown
Elevation
Unknown
Doppler factor
Unknown
Orbital elements
Apogee altitude
560.916 km
Perigee altitude
558.953 km
Semi-major axis
6,938.071 km
Eccentricity
0.00014
Inclination
97.6011°
RAAN
167.5109°
Arg. of periapsis
91.8446°
True anomaly
268.27789°
Mean anomaly
268.2941°
Eccentric anomaly
268.286°
Mean motion
3.75565 °/min
Orbital period
95.86 mins
BSTAR
0.00023129
Loading maneuver chart data...
Computing Atmospheric mass density...
Loading historical data...
Loading historical data...
Loading historical data...
Loading historical data...
Loading historical data...
Loading historical data...
Loading historical data...

Documentation

Showing up to 5 results
|